Location: Maiden
(35.5760°N, 81.2120°W)
Time: 03:30:01
(UTC-04:00)

DMSP B5D2-2 - Pass Details

Date: 02 August 2020
Orbit: 789 x 807 km, 98.3° (Epoch: 11 August)

Event Time Altitude Azimuth Distance (km) Brightness Sun altitude
Rises 21:08:09 0° 15° (NNE) 3,293 7.5 -8.3°
Reaches altitude 10° 21:10:30 10° 17° (NNE) 2,361 6.7 -8.7°
Maximum altitude 21:15:42 73° 102° (ESE) 831 4.0 -9.7°
Drops below altitude 10° 21:20:54 10° 187° (S) 2,356 6.3 -10.6°
Sets 21:23:14 0° 189° (S) 3,284 7.0 -11.0°
